Location: Cormont
(50.5693°N, 1.7416°E)
Time: 22:30:16
(UTC+00:00)

Cosmos 2123 Rocket - Pass Details

Date: 21 October 2019
Orbit: 960 x 993 km, 82.9° (Epoch: 21 November)

Event Time Altitude Azimuth Distance (km) Brightness Sun altitude
Rises 19:17:44 0° 176° (S) 3,688 6.9 -24.1°
Enters shadow 19:20:00 - 174° (S) 2,840 6.2 -24.5°
Exits shadow 19:24:45 46° 151° (SSE) 1,296 4.3 -25.2°
Maximum altitude 19:26:28 64° 94° (E) 1,088 3.9 -25.5°
Drops below altitude 10° 19:32:39 10° 15° (NNE) 2,738 6.3 -26.4°
Sets 19:35:11 0° 12° (NNE) 3,685 7.1 -26.8°
